GW1728 Weather Reports


Display with metric or nautical units.
time (UTC)temp
F
wind
direction
speed
MPH
gust
MPH
rain 1hr
in
rain 24hr
in
rain mn
in
humidity
%
barometer
mb
20260510141444 48 230 8.0 9.0 0.00 0.00 0.00 65 1018.8
20260510140941 48 222 9.0 10.0 0.00 0.00 0.00 65 1018.9
20260510140437 47 217 5.0 6.0 0.00 0.00 0.00 66 1019.0
20260510135936 46 210 7.0 8.0 0.00 0.00 0.00 68 1019.0
20260510135432 45 215 3.0 3.0 0.00 0.00 0.00 70 1019.0
20260510134930 44 186 3.0 3.0 0.00 0.00 0.00 71 1019.0
20260510134426 44 224 5.0 6.0 0.00 0.00 0.00 72 1019.1
20260510133923 44 203 3.0 3.0 0.00 0.00 0.00 72 1019.0
20260510133419 43 201 3.0 5.0 0.00 0.00 0.00 72 1018.8
20260510132914 43 185 1.0 2.0 0.00 0.00 0.00 72 1019.0
20260510132413 43 187 2.0 2.0 0.00 0.00 0.00 73 1019.2
20260510131909 42 203 2.0 2.0 0.00 0.00 0.00 73 1019.1
20260510131407 42 208 3.0 3.0 0.00 0.00 0.00 74 1019.1
20260510130903 42 167 3.0 3.0 0.00 0.00 0.00 75 1019.2
20260510130401 42 189 3.0 3.0 0.00 0.00 0.00 76 1019.1
20260510125857 41 194 0.0 0.0 0.00 0.00 0.00 75 1019.2
20260510125353 40 195 0.0 0.0 0.00 0.00 0.00 77 1019.1
20260510124850 39 199 0.0 0.0 0.00 0.00 0.00 79 1019.0
20260510124347 39 200 0.0 0.0 0.00 0.00 0.00 80 1019.2
20260510123843 38 200 0.0 0.0 0.00 0.00 0.00 79 1019.1
20260510123338 38 200 0.0 0.0 0.00 0.00 0.00 79 1019.1
20260510122835 38 200 0.0 0.0 0.00 0.00 0.00 80 1019.0
20260510122330 38 200 0.0 0.0 0.00 0.00 0.00 80 1019.1
20260510121827 38 200 0.0 0.0 0.00 0.00 0.00 81 1019.1
20260510121325 38 201 1.0 1.0 0.00 0.00 0.00 80 1019.1
20260510120822 38 204 0.0 0.0 0.00 0.00 0.00 83 1019.1
20260510120319 37 204 0.0 0.0 0.00 0.00 0.00 84 1019.0
20260510115814 37 204 0.0 0.0 0.00 0.00 0.00 83 1019.2
20260510115312 37 197 2.0 2.0 0.00 0.00 0.00 83 1019.0
20260510114807 37 193 0.0 0.0 0.00 0.00 0.00 83 1019.2
20260510114305 37 193 0.0 0.0 0.00 0.00 0.00 82 1019.0
20260510113800 37 193 0.0 0.0 0.00 0.00 0.00 82 1019.4
20260510113257 37 193 2.0 2.0 0.00 0.00 0.00 82 1019.2
20260510112753 37 202 0.0 0.0 0.00 0.00 0.00 81 1019.1
20260510112250 38 202 0.0 0.0 0.00 0.00 0.00 82 1019.4
20260510111746 38 202 0.0 1.0 0.00 0.00 0.00 81 1019.5
20260510111243 38 202 0.0 0.0 0.00 0.00 0.00 82 1019.2
20260510110742 38 202 0.0 0.0 0.00 0.00 0.00 82 1019.2
20260510110241 40 202 2.0 2.0 0.00 0.00 0.00 84 1019.2
20260510105740 40 256 0.0 0.0 0.00 0.00 0.00 87 1019.2
20260510105235 39 245 0.0 0.0 0.00 0.00 0.00 86 1019.5
20260510104732 39 244 0.0 0.0 0.00 0.00 0.00 85 1019.4
20260510104230 39 244 0.0 0.0 0.00 0.00 0.00 85 1019.5
20260510103726 39 245 1.0 1.0 0.00 0.00 0.00 84 1019.5
20260510103223 39 227 0.0 0.0 0.00 0.00 0.00 83 1019.5
20260510102723 39 227 0.0 0.0 0.00 0.00 0.00 82 1019.4
20260510102219 40 252 0.0 0.0 0.00 0.00 0.00 83 1019.5
20260510101717 40 253 0.0 0.0 0.00 0.00 0.00 82 1019.6
20260510101215 40 252 0.0 0.0 0.00 0.00 0.00 81 1019.6
20260510100710 40 252 0.0 0.0 0.00 0.00 0.00 80 1019.7
20260510100209 40 252 0.0 0.0 0.00 0.00 0.00 80 1019.6
20260510095704 40 253 1.0 1.0 0.00 0.00 0.00 79 1019.5
20260510095159 41 251 1.0 2.0 0.00 0.00 0.00 78 1019.7
20260510094657 41 250 1.0 1.0 0.00 0.00 0.00 79 1019.5
20260510094154 41 208 1.0 1.0 0.00 0.00 0.00 79 1019.5
20260510093650 41 199 1.0 1.0 0.00 0.00 0.00 79 1019.7
20260510093147 41 190 1.0 1.0 0.00 0.00 0.00 80 1019.7
20260510092644 42 180 0.0 0.0 0.00 0.00 0.00 76 1019.7
20260510092139 43 166 1.0 2.0 0.00 0.00 0.00 76 1019.6
20260510091635 43 228 0.0 0.0 0.00 0.00 0.00 75 1019.5
20260510091131 44 215 0.0 0.0 0.00 0.00 0.00 75 1019.7
20260510090628 44 212 0.0 0.0 0.00 0.00 0.00 74 1019.5
20260510090124 44 209 1.0 2.0 0.00 0.00 0.00 73 1019.7
20260510085614 44 214 0.0 0.0 0.00 0.00 0.00 75 1019.5
20260510085110 44 213 0.0 0.0 0.00 0.00 0.00 75 1019.5
20260510084607 44 213 0.0 0.0 0.00 0.00 0.00 74 1019.4
20260510084103 45 213 0.0 0.0 0.00 0.00 0.00 74 1019.6
20260510083600 45 209 2.0 2.0 0.00 0.00 0.00 72 1019.6
20260510083056 46 209 0.0 0.0 0.00 0.00 0.00 72 1019.4
20260510082553 45 199 2.0 2.0 0.00 0.00 0.00 72 1019.4
20260510082048 45 208 0.0 0.0 0.00 0.00 0.00 73 1019.5
20260510081543 45 210 0.0 0.0 0.00 0.00 0.00 73 1019.7
20260510081039 46 212 2.0 2.0 0.00 0.00 0.00 73 1019.5
20260510080538 46 227 2.0 2.0 0.00 0.00 0.00 73 1019.6
20260510080036 46 224 1.0 2.0 0.00 0.00 0.00 73 1019.7
20260510075533 47 226 2.0 2.0 0.00 0.00 0.00 72 1019.6
20260510075030 47 208 3.0 3.0 0.00 0.00 0.00 72 1019.5
20260510074527 47 184 4.0 5.0 0.00 0.00 0.00 72 1019.5
20260510074023 48 207 2.0 2.0 0.00 0.00 0.00 71 1019.6
20260510073519 48 200 3.0 3.0 0.00 0.00 0.00 70 1019.5
20260510073016 49 226 3.0 3.0 0.00 0.00 0.00 69 1019.8
20260510072513 50 205 4.0 5.0 0.00 0.00 0.00 68 1019.5
20260510072008 51 209 3.0 3.0 0.00 0.00 0.00 66 1019.6
20260510071504 51 196 3.0 3.0 0.00 0.00 0.00 66 1019.8
20260510071003 51 220 0.0 1.0 0.00 0.00 0.00 65 1019.7
20260510070459 52 201 4.0 6.0 0.00 0.00 0.00 64 1019.7
20260510065955 50 159 3.0 3.0 0.00 0.00 0.00 67 1019.7
20260510065452 49 45 1.0 1.0 0.00 0.00 0.00 67 1019.6
20260510064948 51 148 1.0 1.0 0.00 0.00 0.00 63 1019.6
20260510064446 52 153 2.0 2.0 0.00 0.00 0.00 63 1019.5
20260510063942 52 163 3.0 3.0 0.00 0.00 0.00 63 1019.7
20260510063438 51 157 2.0 2.0 0.00 0.00 0.00 63 1019.6
20260510062936 50 103 2.0 2.0 0.00 0.00 0.00 64 1019.5
20260510062431 51 80 1.0 2.0 0.00 0.00 0.00 63 1019.6
20260510061926 51 146 1.0 2.0 0.00 0.00 0.00 63 1019.6
20260510061423 51 151 0.0 0.0 0.00 0.00 0.00 63 1019.8
20260510060919 51 151 0.0 0.0 0.00 0.00 0.00 63 1019.7
20260510060416 52 151 0.0 0.0 0.00 0.00 0.00 62 1019.6
20260510055912 52 151 0.0 0.0 0.00 0.00 0.00 61 1019.6
20260510055408 52 150 0.0 0.0 0.00 0.00 0.00 61 1019.5
20260510054901 52 150 0.0 0.0 0.00 0.00 0.00 60 1019.7
20260510054356 53 150 0.0 0.0 0.00 0.00 0.00 59 1019.6
20260510053851 54 149 0.0 0.0 0.00 0.00 0.00 58 1019.7
20260510053347 54 145 1.0 1.0 0.00 0.00 0.00 59 1019.6
20260510052844 54 123 0.0 1.0 0.00 0.00 0.00 59 1019.7
20260510052339 54 113 1.0 1.0 0.00 0.00 0.00 58 1019.7
20260510051836 55 104 1.0 2.0 0.00 0.00 0.00 58 1019.4
20260510051333 56 98 3.0 5.0 0.00 0.00 0.00 56 1019.6
20260510050830 58 165 1.0 1.0 0.00 0.00 0.00 53 1019.7
20260510050326 58 170 3.0 3.0 0.00 0.00 0.00 51 1019.7
20260510045823 58 105 3.0 3.0 0.00 0.00 0.00 53 1019.6
20260510045320 57 90 5.0 7.0 0.00 0.00 0.00 53 1019.6
20260510044817 58 198 2.0 2.0 0.00 0.00 0.00 53 1019.5
20260510044314 59 220 3.0 3.0 0.00 0.00 0.00 52 1019.5
20260510043810 58 223 4.0 5.0 0.00 0.00 0.00 52 1019.5
20260510043306 58 222 4.0 6.0 0.00 0.00 0.00 52 1019.2
20260510042804 59 228 4.0 5.0 0.00 0.00 0.00 51 1019.0
20260510042259 59 240 6.0 7.0 0.00 0.00 0.00 51 1019.4
20260510041756 59 231 6.0 7.0 0.00 0.00 0.00 51 1019.4
20260510041253 59 237 5.0 6.0 0.00 0.00 0.00 50 1019.4
20260510040750 58 239 5.0 6.0 0.00 0.00 0.00 51 1019.4
20260510040242 58 229 3.0 3.0 0.00 0.00 0.00 51 1019.2
20260510035737 58 230 2.0 2.0 0.00 0.00 0.00 50 1019.2
20260510035233 59 227 3.0 3.0 0.00 0.00 0.00 49 1019.2
20260510034729 59 225 3.0 3.0 0.00 0.00 0.00 49 1019.0
20260510034228 59 223 3.0 5.0 0.00 0.00 0.00 48 1019.1
20260510033723 59 219 3.0 3.0 0.00 0.00 0.00 49 1019.0
20260510033221 58 222 3.0 3.0 0.00 0.00 0.00 50 1019.0
20260510032717 58 213 0.0 0.0 0.00 0.00 0.00 51 1019.0
20260510032213 59 212 0.0 0.0 0.00 0.00 0.00 50 1018.9
20260510031708 59 212 0.0 0.0 0.00 0.00 0.00 49 1019.0
20260510031205 60 212 0.0 0.0 0.00 0.00 0.00 48 1018.8
20260510030704 60 212 1.0 2.0 0.00 0.00 0.00 47 1018.7
20260510030202 60 213 1.0 2.0 0.00 0.00 0.00 47 1018.6
20260510025659 61 212 2.0 2.0 0.00 0.00 0.00 45 1018.6
20260510025156 61 218 1.0 2.0 0.00 0.00 0.00 45 1018.4
20260510024653 62 219 2.0 2.0 0.00 0.00 0.00 45 1018.6
20260510024150 62 221 3.0 3.0 0.00 0.00 0.00 44 1018.5
20260510023645 63 226 2.0 2.0 0.00 0.00 0.00 43 1018.4
20260510023143 63 220 3.0 3.0 0.00 0.00 0.00 43 1018.5
20260510022637 64 223 3.0 3.0 0.00 0.00 0.00 42 1018.4
20260510022133 64 223 2.0 2.0 0.00 0.00 0.00 42 1018.4
20260510021628 65 222 3.0 3.0 0.00 0.00 0.00 41 1018.5
20260510021126 65 231 2.0 2.0 0.00 0.00 0.00 41 1018.3
20260510020620 65 240 2.0 2.0 0.00 0.00 0.00 41 1018.3
20260510020115 66 235 3.0 3.0 0.00 0.00 0.00 42 1018.3
20260510015612 66 242 3.0 3.0 0.00 0.00 0.00 42 1018.0
20260510015108 65 252 3.0 3.0 0.00 0.00 0.00 40 1018.3
20260510014604 66 263 0.0 0.0 0.00 0.00 0.00 41 1018.3
20260510014101 66 268 0.0 0.0 0.00 0.00 0.00 41 1018.2
20260510013555 66 272 0.0 0.0 0.00 0.00 0.00 40 1017.9
20260510013052 66 284 0.0 0.0 0.00 0.00 0.00 38 1018.2
20260510012546 67 296 0.0 0.0 0.00 0.00 0.00 38 1018.3
20260510012043 68 292 0.0 1.0 0.00 0.00 0.00 38 1018.2
20260510011542 68 207 3.0 5.0 0.00 0.00 0.00 37 1018.2
20260510011038 68 256 1.0 1.0 0.00 0.00 0.00 36 1018.2
20260510010535 68 234 0.0 0.0 0.00 0.00 0.00 37 1018.3
20260510010032 68 212 1.0 1.0 0.00 0.00 0.00 37 1018.2
20260510005527 68 246 4.0 5.0 0.00 0.00 0.00 37 1018.2
20260510005026 67 272 2.0 2.0 0.00 0.00 0.00 38 1018.3
20260510004523 67 274 1.0 1.0 0.00 0.00 0.00 37 1018.3
20260510004021 67 181 5.0 6.0 0.00 0.00 0.00 38 1018.5
20260510003517 67 210 2.0 2.0 0.00 0.00 0.00 38 1018.3
20260510003013 67 222 2.0 2.0 0.00 0.00 0.00 38 1018.3
20260510002508 68 233 3.0 3.0 0.00 0.00 0.00 38 1018.5
20260510002006 67 217 3.0 3.0 0.00 0.00 0.00 38 1018.3
20260510001503 67 225 2.0 2.0 0.00 0.00 0.00 38 1018.4
20260510001001 67 206 4.0 5.0 0.00 0.00 0.00 38 1018.5
20260510000456 67 234 4.0 6.0 0.00 0.00 0.00 40 1018.5
20260509235953 67 218 3.0 3.0 0.00 0.00 0.00 37 1018.5
20260509235450 67 194 3.0 3.0 0.00 0.00 0.00 37 1018.4
20260509234946 67 237 6.0 7.0 0.00 0.00 0.00 38 1018.3
20260509234443 67 225 4.0 6.0 0.00 0.00 0.00 38 1018.3
20260509233941 67 197 2.0 2.0 0.00 0.00 0.00 38 1018.5
20260509233438 67 249 2.0 2.0 0.00 0.00 0.00 38 1018.3
20260509232934 66 235 1.0 1.0 0.00 0.00 0.00 37 1018.3
20260509232432 66 250 2.0 2.0 0.00 0.00 0.00 37 1018.3
20260509231927 66 230 3.0 3.0 0.00 0.00 0.00 38 1018.5
20260509231424 66 224 2.0 2.0 0.00 0.00 0.00 38 1018.5
20260509230923 66 253 3.0 5.0 0.00 0.00 0.00 38 1018.4
20260509230419 66 234 6.0 7.0 0.00 0.00 0.00 39 1018.5
20260509225914 66 198 4.0 7.0 0.00 0.00 0.00 39 1018.4
20260509225411 66 170 3.0 5.0 0.00 0.00 0.00 38 1018.4
20260509224907 66 199 4.0 5.0 0.00 0.00 0.00 38 1018.4
20260509224402 66 225 3.0 3.0 0.00 0.00 0.00 38 1018.6
20260509223900 66 229 5.0 6.0 0.00 0.00 0.00 38 1018.7
20260509223351 66 235 6.0 7.0 0.00 0.00 0.00 38 1018.5
20260509222848 66 207 4.0 5.0 0.00 0.00 0.00 39 1018.5
20260509222343 68 233 9.0 10.0 0.00 0.00 0.00 39 1018.5
20260509221838 67 222 8.0 9.0 0.00 0.00 0.00 38 1018.5
20260509221336 67 184 1.0 2.0 0.00 0.00 0.00 38 1018.7
20260509220831 66 244 0.0 0.0 0.00 0.00 0.00 40 1018.7
20260509220328 66 245 6.0 7.0 0.00 0.00 0.00 40 1018.7
20260509215823 66 222 2.0 2.0 0.00 0.00 0.00 40 1018.7
20260509215320 66 227 3.0 3.0 0.00 0.00 0.00 41 1018.9
20260509214817 66 244 7.0 9.0 0.00 0.00 0.00 40 1018.9
20260509214314 68 216 9.0 11.0 0.00 0.00 0.00 40 1018.8
20260509213811 67 200 3.0 5.0 0.00 0.00 0.00 40 1018.7
20260509213307 66 68 3.0 3.0 0.00 0.00 0.00 40 1018.9
20260509212804 65 174 5.0 6.0 0.00 0.00 0.00 41 1019.0
20260509212305 65 224 5.0 6.0 0.00 0.00 0.00 42 1019.2
20260509211757 66 222 8.0 8.0 0.00 0.00 0.00 40 1019.2
20260509211253 66 243 7.0 8.0 0.00 0.00 0.00 40 1019.0
20260509210750 67 162 4.0 5.0 0.00 0.00 0.00 40 1019.1
20260509210248 66 160 4.0 5.0 0.00 0.00 0.00 39 1019.1
20260509205747 65 237 6.0 7.0 0.00 0.00 0.00 41 1019.1
20260509205242 65 195 2.0 2.0 0.00 0.00 0.00 40 1019.0
20260509204738 66 193 4.0 6.0 0.00 0.00 0.00 40 1019.2
20260509204235 68 224 7.0 10.0 0.00 0.00 0.00 37 1019.1
20260509203731 67 313 3.0 5.0 0.00 0.00 0.00 39 1019.1
20260509203229 64 235 3.0 3.0 0.00 0.00 0.00 42 1019.1
20260509202725 65 241 5.0 7.0 0.00 0.00 0.00 42 1019.0
20260509202221 66 169 7.0 8.0 0.00 0.00 0.00 40 1019.1
20260509201715 67 225 7.0 9.0 0.00 0.00 0.00 38 1018.8
20260509201212 65 236 7.0 9.0 0.00 0.00 0.00 42 1019.0
20260509200709 66 176 5.0 5.0 0.00 0.00 0.00 39 1019.2
20260509200203 67 247 3.0 3.0 0.00 0.00 0.00 37 1019.0
20260509195659 66 246 4.0 6.0 0.00 0.00 0.00 40 1019.1
20260509195155 66 239 5.0 6.0 0.00 0.00 0.00 40 1019.1
20260509194649 63 223 5.0 6.0 0.00 0.00 0.00 43 1019.1
20260509194146 63 204 4.0 5.0 0.00 0.00 0.00 42 1019.2
20260509193641 63 215 5.0 6.0 0.00 0.00 0.00 43 1019.1
20260509193132 63 225 3.0 3.0 0.00 0.00 0.00 43 1019.4
20260509192629 62 211 7.0 8.0 0.00 0.00 0.00 44 1019.4
20260509192123 62 216 3.0 3.0 0.00 0.00 0.00 44 1019.4
20260509191618 62 235 1.0 1.0 0.00 0.00 0.00 43 1019.4
20260509191115 62 266 1.0 1.0 0.00 0.00 0.00 42 1019.2
20260509190611 62 129 0.0 1.0 0.00 0.00 0.00 42 1019.2
20260509190109 62 227 2.0 2.0 0.00 0.00 0.00 42 1019.4
20260509185606 62 170 0.0 0.0 0.00 0.00 0.00 41 1019.5
20260509185102 62 145 1.0 2.0 0.00 0.00 0.00 42 1019.4
20260509184601 62 214 0.0 0.0 0.00 0.00 0.00 42 1019.4
20260509184057 63 268 2.0 2.0 0.00 0.00 0.00 41 1019.2
20260509183552 62 210 0.0 0.0 0.00 0.00 0.00 41 1019.4
20260509183048 62 208 2.0 2.0 0.00 0.00 0.00 42 1019.2
20260509182545 62 228 2.0 2.0 0.00 0.00 0.00 41 1019.1
20260509182042 62 354 2.0 2.0 0.00 0.00 0.00 42 1019.1
20260509181540 62 324 2.0 2.0 0.00 0.00 0.00 41 1019.0
20260509181037 62 344 2.0 2.0 0.00 0.00 0.00 42 1019.1
20260509180533 62 299 1.0 1.0 0.00 0.00 0.00 42 1019.1
20260509180030 61 355 3.0 3.0 0.00 0.00 0.00 42 1019.0
20260509175525 61 307 1.0 1.0 0.00 0.00 0.00 43 1019.1
20260509175022 61 314 1.0 1.0 0.00 0.00 0.00 43 1018.9
20260509174519 62 2 3.0 5.0 0.00 0.00 0.00 42 1019.0
20260509174014 61 12 4.0 6.0 0.00 0.00 0.00 42 1018.9
20260509173509 62 14 3.0 3.0 0.00 0.00 0.00 42 1018.9
20260509173005 62 221 0.0 0.0 0.00 0.00 0.00 41 1018.9
20260509172503 61 232 0.0 0.0 0.00 0.00 0.00 43 1018.9
20260509171958 61 176 3.0 3.0 0.00 0.00 0.00 43 1018.7
20260509171454 61 173 5.0 6.0 0.00 0.00 0.00 42 1018.7
20260509170951 61 154 6.0 7.0 0.00 0.00 0.00 40 1018.7
20260509170446 61 136 4.0 5.0 0.00 0.00 0.00 40 1018.7
20260509165942 63 210 6.0 7.0 0.00 0.00 0.00 41 1018.5
20260509165441 63 266 1.0 1.0 0.00 0.00 0.00 43 1018.7
20260509164937 62 221 3.0 5.0 0.00 0.00 0.00 46 1018.7
20260509164433 63 355 4.0 5.0 0.00 0.00 0.00 43 1018.6
20260509163929 63 4 3.0 3.0 0.00 0.00 0.00 45 1018.7
20260509163427 63 292 3.0 5.0 0.00 0.00 0.00 46 1018.4
20260509162926 62 275 2.0 3.0 0.00 0.00 0.00 47 1018.6
20260509162425 62 302 1.0 1.0 0.00 0.00 0.00 46 1018.5
20260509161920 62 291 3.0 3.0 0.00 0.00 0.00 47 1018.6
20260509161417 62 312 2.0 3.0 0.00 0.00 0.00 47 1018.5
20260509160912 62 340 4.0 6.0 0.00 0.00 0.00 47 1018.8
20260509160408 62 259 0.0 0.0 0.00 0.00 0.00 49 1018.5
20260509155904 61 256 0.0 1.0 0.00 0.00 0.00 50 1018.4
20260509155401 61 285 1.0 2.0 0.00 0.00 0.00 50 1018.6
20260509154857 61 273 0.0 1.0 0.00 0.00 0.00 49 1018.5
20260509154354 61 265 1.0 1.0 0.00 0.00 0.00 52 1018.3
20260509153850 61 249 2.0 3.0 0.00 0.00 0.00 51 1018.3
20260509153347 61 339 3.0 5.0 0.00 0.00 0.00 51 1018.2
20260509152844 60 291 2.0 2.0 0.00 0.00 0.00 54 1018.3
20260509152340 59 334 2.0 3.0 0.00 0.00 0.00 54 1018.3
20260509151838 59 243 1.0 2.0 0.00 0.00 0.00 54 1018.2
20260509151333 60 304 1.0 1.0 0.00 0.00 0.00 54 1018.3
20260509150832 59 350 2.0 2.0 0.00 0.00 0.00 53 1018.2
20260509150329 59 304 1.0 1.0 0.00 0.00 0.00 56 1017.9
20260509145827 59 277 1.0 1.0 0.00 0.00 0.00 57 1018.0
20260509145321 59 312 2.0 2.0 0.00 0.00 0.00 56 1017.7
20260509144818 58 324 2.0 2.0 0.00 0.00 0.00 58 1017.8
20260509144315 57 234 0.0 0.0 0.00 0.00 0.00 60 1018.3
20260509143812 57 246 0.0 0.0 0.00 0.00 0.00 59 1017.9
20260509143310 57 293 1.0 1.0 0.00 0.00 0.00 60 1017.9
20260509142806 57 284 0.0 0.0 0.00 0.00 0.00 63 1017.9
20260509142302 57 345 4.0 5.0 0.00 0.00 0.00 62 1017.8
20260509141757 57 314 0.0 0.0 0.00 0.00 0.00 62 1017.8